Meath Environmental Platform

Observations for Trim Market St

Time AQI Temp °C Hum % Pres Pa CO μg/m³ H₂S μg/m³ NO μg/m³ NO₂ μg/m³ O₃ μg/m³ SO₂ μg/m³ PM1 μg/m³ PM2.5 μg/m³ PM10 μg/m³
Wednesday 15 July 2026
05:37 1 17.3 79 2,147,483,647 0.18 0 0 7.17 16.6 0 9.26 12.06 16.67
05:36 1 17.3 79 2,147,483,647 0.19 0 0 4.98 18.05 0 9.98 13.96 21.25
05:35 1 17.3 79 2,147,483,647 0.18 0 0 5.88 17.06 0 8.55 13.02 20.11
05:34 1 17.3 79 2,147,483,647 0.19 0 0 6.58 16.77 0 9.26 14.44 21.25
05:33 1 17.3 79 2,147,483,647 0.18 0 0 5.08 16.42 0 7.13 10.65 16.1
05:32 1 17.3 79 2,147,483,647 0.19 0 0 4.78 17.89 0 7.13 10.65 19.53
05:31 1 17.3 79 2,147,483,647 0.19 0 0 5.69 14.34 0 6.41 9.71 14.4
05:30 1 17.3 79 2,147,483,647 0.18 0 0 4.89 16.48 0 9.26 12.08 18.4
05:29 1 17.3 79 2,147,483,647 0.19 0 0 6.19 16.89 0 7.84 11.13 16.11
05:28 1 17.3 79 2,147,483,647 0.18 0 0 5.09 14.61 0 7.84 11.13 17.26
05:27 1 17.3 79 2,147,483,647 0.19 0 0 4.29 15.67 0 8.55 10.66 16.69
05:26 1 17.3 79 2,147,483,647 0.18 0 0 5.89 14.4 0 9.26 13.03 19.55
05:25 1 17.3 79 2,147,483,647 0.19 0 0 6.2 14.01 0 9.26 11.14 16.7
05:24 1 17.3 79 2,147,483,647 0.19 0 0 4.71 20.2 0 8.55 12.57 19.57
05:22 1 17.3 79 2,147,483,647 0.18 0 0 6.11 20.58 0 9.26 13.04 19.57
05:19 1 17.3 79 2,147,483,647 0.17 0 0 5.51 17.53 0 9.26 12.09 19
05:17 1 17.3 79 2,147,483,647 0.18 0 0 4.92 16.95 0 9.26 14 19.01
05:15 1 17.3 79 2,147,483,647 0.17 0 0 5.63 17.53 0 9.98 11.16 16.15
05:07 1 17.3 78 2,147,483,647 0.18 0 0.03 6.37 21.88 0 8.55 11.66 17.33
05:06 1 17.3 78 2,147,483,647 0.17 0 0 6.68 17.96 0 6.41 10.72 16.18